Flag for Germany Weather past 2 weeks in Kerpen, North Rhine-Westphalia, Germany

Now
66 °F

Mild.


Feels Like: 66 °F
Forecast: 62 / 75 °F
Wind: 2 mph from East

Location: Noervenich

Current Time: Aug 2, 2014 at 9:28:46 AM

Latest Report: Aug 2, 2014 at 8:20 AM


Visibility: 2 mi

Pressure: 29.74 "Hg

Humidity: 78%

Dew point: 59 °F

Location of KerpenLocation

Historic Weather in Kerpen — Graph

°F

Kerpen temperature yesterday

Maximum temperature yesterday: 82 °F (at 5:20 PM)
Minimum temperature yesterday: 57 °F (at 6:20 AM)
Average temperature yesterday: 71 °F

Past Weeks' High & Low Weather Summary

 TemperatureHumidityPressure
High93 °F (Jul 18, 5:20 PM)100% (Jul 21, 8:20 AM)30.09 "Hg (Jul 21, 8:20 AM)
Low55 °F (Jul 31, 6:20 AM)28% (Jul 18, 5:20 PM)29.74 "Hg (Aug 2, 5:20 AM)
Average70 °F75%29.92 "Hg
* Reported Jul 18 8:20 AM — Aug 2 8:20 AM, Kerpen, Weather by CustomWeather, © 2014

Note: Actual official high and low records may vary slightly from our data, if they occured in-between our weather recording intervals... More about our weather records

Advertising

Kerpen weather history for previous 24 hours

 ConditionsComfort  
Time TempWeatherWind HumidityBarometerVisibility
8:20 AM
Aug 2
66 °FMild.2 mph78%29.74 "Hg2 mi
7:20 AM66 °FMild.2 mph73%29.74 "Hg2 mi
6:20 AM64 °FMild.1 mph78%29.74 "Hg2 mi
5:20 AM64 °FMild.2 mph78%29.74 "Hg2 mi
4:20 AM66 °FMild.1 mph78%29.77 "Hg2 mi
3:20 AM68 °FMild.2 mph73%29.77 "Hg2 mi
2:20 AM70 °FMild.3 mph69%29.77 "Hg2 mi
1:20 AM70 °FMild.2 mph69%29.77 "Hg2 mi
12:20 AM72 °FMild.2 mph69%29.80 "Hg2 mi
11:20 PM
Aug 1
72 °FMild.1 mph69%29.80 "Hg2 mi
10:20 PM73 °FMild.1 mph65%29.77 "Hg2 mi
9:20 PM75 °FMild.No wind61%29.77 "Hg2 mi
8:20 PM77 °FWarm.2 mph57%29.77 "Hg2 mi
7:20 PM79 °FWarm.2 mph54%29.80 "Hg2 mi
6:20 PM81 °FWarm.2 mph42%29.80 "Hg3 mi
5:20 PM82 °FPleasantly warm.2 mph40%29.80 "Hg3 mi
4:20 PM81 °FWarm.2 mph42%29.80 "Hg3 mi
3:20 PM81 °FWarm.2 mph45%29.83 "Hg3 mi
2:20 PM79 °FWarm.2 mph48%29.83 "Hg3 mi
1:20 PM79 °FWarm.2 mph45%29.83 "Hg2 mi
12:20 PM77 °FWarm.1 mph51%29.86 "Hg2 mi
12:01 PM77 °FBroken clouds.2 mph51%29.86 "HgN/A
11:20 AM77 °FScattered clouds.2 mph54%29.86 "HgN/A
10:20 AM72 °FPartly sunny.2 mph65%29.89 "HgN/A
9:20 AM68 °FBroken clouds.2 mph73%29.89 "HgN/A
Weather by CustomWeather, © 2014

See weather overviewHow to use our weather pages